Vertical_Velocity
-4 2 2 3 4 5 -3 -4 6 -8 5 14 1 3 -0 6 2 1 1 0 -2 -1 -4 -2 1 -1 0 -0 -1 -2 -4 2
0 -4 4 4 0 1 2 1 9 -3 4 6 -1 3 -3 8 5 -1 1 0 -1 -2 -2 -1 1 -3 -0 0 0 0 -1 -3
-1 -6 -3 1 6 5 1 3 -5 4 -1 12 -2 2 -1 16 2 -2 3 2 -4 -1 -0 -1 1 -2 1 -1 -0 -1 -1 1
3 -0 -2 -1 8 -0 -2 -1 10 8 1 -2 6 0 -2 49 18 3 4 -3 0 -2 -0 0 0 0 -1 -0 -0 3 -2 -2
4 6 -5 1 -1 -1 4 1 2 -1 7 5 9 4 4 6 1 5 0 3 -3 0 1 -0 -1 1 -1 2 1 0 -1 -1
-2 1 2 3 -2 4 7 3 3 6 8 5 2 2 3 11 5 2 -1 -2 -3 -0 2 1 1 -0 -1 -2 -1 2 -1 -2
0 -0 1 0 -2 -2 5 1 2 -0 5 4 4 3 3 3 -2 2 -3 -3 0 1 1 3 0 0 -1 1 -1 -0 -2 -3
-4 3 -1 -2 -2 -4 -1 8 6 6 4 2 1 -0 2 -2 -2 -3 0 -1 0 1 4 3 -1 -1 -1 -3 -1 1 -0 -2
1 7 -4 -4 4 1 -1 3 -0 8 2 -2 6 1 7 -4 -0 -5 -2 -2 -1 3 1 2 -0 -2 -4 -2 2 -1 -0 1
-4 3 1 -1 1 1 -4 -0 5 3 9 -3 28 11 9 8 -0 -1 1 -1 -1 2 1 1 -7 -3 0 -1 2 -1 -1 -0
4 -2 -1 3 -1 4 -5 8 -4 6 -3 19 16 7 3 2 -3 -3 -2 -1 0 1 -0 -3 -3 1 -0 2 -1 1 2 -1
1 2 2 -1 4 -5 9 0 -0 4 2 -1 7 -5 -7 -3 -3 -0 -1 -5 0 1 0 -4 -0 -2 0 -1 -5 3 5 8
1 2 1 -1 4 6 5 -1 -2 -6 -1 10 16 4 8 -2 2 -2 5 -1 -2 -2 0 -3 -1 -1 -0 -0 -5 5 5 0
-0 2 1 -1 2 8 5 3 6 13 5 39 11 9 2 -1 -5 -0 0 2 0 -0 -3 -2 3 -3 2 0 -3 10 5 3
4 -0 2 0 -0 -1 -0 4 16 22 -0 0 11 38 3 -1 -1 -0 -3 -1 0 1 -0 -2 2 -3 -1 -5 -2 -1 11 7
1 -1 -1 1 -1 2 -2 -0 -1 1 8 2 27 22 19 4 -5 2 3 -0 -4 0 -0 -1 0 -1 -2 -1 -3 -3 8 6
-1 1 1 0 1 0 -0 -1 1 -7 5 18 4 54 -0 3 -3 -6 -1 -0 2 1 -1 -0 -0 1 -2 -3 -0 -2 -1 9
3 1 1 2 1 -1 -1 -1 -1 -0 -7 46 13 12 44 -3 -2 2 -0 -0 -0 -0 3 1 1 -1 -0 -2 -3 -3 -3 -2
2 2 1 1 3 1 -3 -2 -2 -2 -2 4 -6 15 57 -1 7 9 2 -2 -1 -2 0 1 0 2 -0 -1 -2 -0 -2 -1
Height
5668 5668 5669 5672 5676 5678 5681 5684 5691 5698 5700 5704 5707 5709 5714 5719 5721 5723 5724 5726 5728 5729 5729 5728 5728 5727 5728 5730 5732 5734 5735 5738
5651 5652 5654 5657 5662 5666 5670 5675 5680 5687 5690 5694 5699 5705 5708 5711 5714 5716 5717 5719 5721 5723 5722 5721 5721 5721 5722 5724 5727 5728 5730 5732
5638 5639 5640 5644 5648 5654 5658 5662 5668 5676 5679 5686 5690 5695 5698 5701 5701 5706 5710 5711 5714 5715 5716 5715 5714 5715 5717 5719 5720 5722 5723 5726
5626 5626 5628 5632 5637 5643 5646 5652 5659 5664 5673 5675 5679 5685 5689 5693 5692 5700 5705 5705 5707 5708 5709 5709 5709 5710 5712 5713 5714 5716 5718 5719
5614 5617 5618 5622 5627 5634 5639 5645 5650 5657 5663 5666 5670 5678 5684 5688 5689 5695 5696 5700 5700 5702 5702 5703 5704 5705 5705 5705 5707 5709 5711 5714
5603 5606 5609 5614 5619 5626 5632 5638 5642 5649 5653 5658 5664 5670 5675 5679 5682 5686 5691 5693 5694 5695 5696 5697 5697 5698 5699 5700 5701 5702 5705 5707
5594 5598 5602 5607 5613 5618 5626 5631 5636 5642 5646 5652 5658 5663 5669 5671 5675 5680 5684 5686 5688 5689 5690 5691 5692 5693 5693 5693 5694 5695 5696 5700
5588 5591 5595 5600 5605 5611 5619 5626 5630 5635 5640 5645 5650 5656 5661 5666 5669 5673 5677 5680 5682 5682 5684 5685 5686 5687 5686 5687 5687 5687 5687 5690
5584 5586 5589 5594 5600 5606 5612 5619 5624 5630 5633 5637 5644 5649 5654 5660 5664 5668 5672 5674 5675 5677 5678 5680 5681 5681 5681 5681 5679 5678 5679 5680
5580 5581 5584 5592 5596 5599 5606 5613 5619 5623 5630 5634 5636 5641 5648 5654 5658 5662 5666 5667 5669 5672 5673 5673 5675 5675 5674 5672 5671 5670 5670 5673
5577 5578 5581 5587 5591 5595 5602 5606 5612 5618 5621 5622 5627 5635 5641 5646 5652 5656 5659 5661 5664 5666 5667 5668 5669 5669 5667 5665 5663 5662 5663 5667
5576 5577 5578 5582 5586 5592 5596 5600 5604 5608 5613 5618 5621 5626 5633 5639 5645 5649 5652 5655 5659 5661 5661 5663 5663 5662 5661 5660 5656 5655 5657 5662
5573 5574 5577 5578 5582 5585 5589 5594 5595 5600 5606 5611 5615 5620 5626 5631 5638 5642 5646 5649 5652 5655 5656 5657 5656 5656 5655 5654 5649 5650 5651 5656
5569 5570 5572 5575 5578 5580 5584 5588 5591 5595 5600 5606 5610 5614 5620 5626 5632 5636 5641 5644 5646 5648 5649 5650 5651 5651 5650 5648 5645 5645 5647 5652
5566 5568 5569 5570 5573 5576 5579 5582 5586 5591 5589 5597 5602 5604 5613 5618 5625 5631 5635 5639 5639 5640 5643 5644 5644 5644 5644 5644 5644 5641 5643 5645
5563 5564 5566 5567 5568 5571 5573 5577 5580 5584 5586 5590 5586 5594 5603 5610 5616 5622 5627 5631 5633 5633 5636 5637 5638 5639 5640 5640 5640 5640 5641 5643
5560 5561 5562 5564 5564 5565 5568 5573 5576 5578 5582 5583 5586 5583 5596 5604 5610 5614 5620 5623 5627 5627 5630 5631 5633 5634 5635 5636 5637 5638 5638 5640
5558 5558 5559 5560 5561 5562 5564 5568 5572 5576 5581 5577 5584 5589 5590 5598 5604 5608 5612 5617 5620 5622 5624 5626 5627 5629 5630 5631 5633 5634 5636 5637
5556 5557 5557 5557 5558 5559 5560 5562 5565 5570 5575 5582 5583 5586 5588 5589 5597 5603 5606 5610 5612 5615 5618 5620 5622 5623 5624 5626 5627 5629 5631 5633